Terminal Aerodrome Forecast
Issued by NWS Omaha/Valley, NE

Home | Current Version | Previous Version | Text Only | Print | Product List | Glossary Off
Versions: 1 2 3 4 5 6 7 8 9 10 11 12 13 14 15 16 17 18 19 20 21 22 23 24 25 26 27 28 29 30 31 32 33 34 35 36 37 38 39 40

000
FTUS43 KOAX 180940 AAA
TAFOFK
TAF AMD
KOFK 180940Z 1810/1906 13005KT P6SM OVC060
      TEMPO 1810/1812 4SM -SN BKN035
     FM181500 16005KT 3SM BR OVC015
     FM181900 19006KT P6SM OVC015=

USA.gov is the U.S. government's official web portal to all federal, state and local government web resources and services.